Zurück zum Katalog

O3B MPOWER F10

AktivKommunikationMEO
NORAD 64867·PAYLOAD·🇱🇺 Luxembourg

Gestartet Jul 22, 2025 von Cape Canaveral Space Force Station

Loading…

Nächste Überflüge (nächste 24 Stunden)

TLE

AktuellSource: CelesTrak SupGP

Epoche: Sep 14, 2026, 19:59 UTC

1 64867C 25153B   26257.83333333  .00000000  00000+0  00000+0 0  2573
2 64867   0.0624 355.8176 0004596 271.6713 345.2868  5.00114993    10

Verfolge O3B MPOWER F10 in Echtzeit mit AllMySat

Download on the App Store